Chrysopouli, Greece

3:22 AM EET on November 19, 2018 (GMT +0200)
Megas Alexandros

Weather History for LGKV - February, 2018

Change the Weather History Date:

Wednesday, February 14, 2018

  Actual Average Record
Temperature  
Mean Temperature 49 °F -  
Max Temperature 56 °F 48 °F 64 °F (2016)
Min Temperature 41 °F 34 °F 15 °F (2004)
Degree Days  
Heating Degree Days 16    
Moisture  
Dew Point 43 °F    
Average Humidity 74    
Maximum Humidity 100    
Minimum Humidity 51    
Precipitation  
Precipitation 0.01 in - - ()
Sea Level Pressure  
Sea Level Pressure 29.71 in    
Wind  
Wind Speed 10 mph ()    
Max Wind Speed 21 mph    
Max Gust Speed -    
Visibility 6.2 miles    
Events Rain , Thunderstorm    
Averages and records for this station are not official NWS values.
T = Trace of Precipitation, MM = Missing Value Source: Averaged Metar Reports

Daily Weather History Graph

Daily Weather History Graph

Search for Another Location

Airport or City:

Astronomy

Feb. 14, 2018 Rise Set
Actual Time 7:17 AM EET 5:54 PM EET
Civil Twilight 6:49 AM EET 6:22 PM EET
Nautical Twilight 6:17 AM EET 6:55 PM EET
Astronomical Twilight 5:45 AM EET 7:26 PM EET
Moon 6:25 AM EET (2/14) 4:37 PM EET (2/14)
Length of Visible Light 11h 33m
Length of Day
10h 36m
Waning Crescent, 2% of the Moon is Illuminated
Feb 14
Waning Crescent
Feb 15
New
Feb 23
First Quarter
Mar 2
Full
Mar 9
Last Quarter

Hourly Weather History & Observations

Time (EET) Temp. Windchill Dew Point Humidity Pressure Visibility Wind Dir Wind Speed Gust Speed Precip Events Conditions
12:50 AM 46.4 °F 40.7 °F 42.8 °F 87% 29.74 in 6.2 mi NNE 12.7 mph - N/A   Mostly Cloudy
1:50 AM 46.4 °F 40.4 °F 46.4 °F 100% 29.71 in 6.2 mi NNE 13.8 mph - N/A Rain Light Rain
2:50 AM 46.4 °F 41.1 °F 44.6 °F 93% 29.68 in 6.2 mi NNE 11.5 mph - N/A Rain Light Rain
3:50 AM 46.4 °F 43.5 °F 44.6 °F 93% 29.62 in 6.2 mi NE 5.8 mph - N/A Rain Light Rain
4:50 AM 53.6 °F - 50.0 °F 88% 29.59 in 6.2 mi South 12.7 mph - N/A   Mostly Cloudy
5:00 AM 53 °F - 51 °F 88% 29.61 in 6 mi South 12.7 mph - - Rain Light Rain
5:20 AM 51.8 °F - 50.0 °F 94% 29.59 in 6.2 mi West 6.9 mph - N/A   Mostly Cloudy
5:50 AM 53.6 °F - 50.0 °F 88% 29.59 in 6.2 mi Calm Calm - N/A Thunderstorm Thunderstorm
6:20 AM 53.6 °F - 50.0 °F 88% 29.59 in 6.2 mi Calm Calm - N/A Thunderstorm Thunderstorm
6:50 AM 51.8 °F - 48.2 °F 88% 29.59 in 6.2 mi SW 9.2 mph - N/A   Scattered Clouds
7:20 AM 51.8 °F - 48.2 °F 88% 29.59 in 6.2 mi WSW 9.2 mph - N/A   Scattered Clouds
7:50 AM 51.8 °F - 48.2 °F 88% 29.59 in 6.2 mi West 6.9 mph - N/A   Scattered Clouds
8:00 AM 52 °F - 47 °F 79% 29.62 in 6 mi West 6.9 mph - -   Partly Cloudy
8:20 AM 51.8 °F - 48.2 °F 88% 29.59 in 6.2 mi WSW 8.1 mph - N/A   Scattered Clouds
8:50 AM 53.6 °F - 48.2 °F 82% 29.62 in 6.2 mi NW 5.8 mph - N/A   Scattered Clouds
9:20 AM 53.6 °F - 48.2 °F 82% 29.62 in 6.2 mi NW 5.8 mph - N/A   Scattered Clouds
9:50 AM 55.4 °F - 48.2 °F 77% 29.62 in 6.2 mi WNW 9.2 mph - N/A   Scattered Clouds
10:50 AM 55.4 °F - 44.6 °F 67% 29.65 in 6.2 mi West 9.2 mph - N/A   Mostly Cloudy
11:00 AM 55 °F - 45 °F 60% 29.65 in 6 mi West 9.2 mph - -   Scattered Clouds
11:20 AM 55.4 °F - 44.6 °F 67% 29.65 in 6.2 mi West 11.5 mph - N/A   Mostly Cloudy
11:50 AM 53.6 °F - 42.8 °F 67% 29.65 in 6.2 mi West 19.6 mph - N/A Rain Light Rain
12:20 PM 53.6 °F - 44.6 °F 72% 29.65 in 6.2 mi WNW 15.0 mph - N/A Rain Light Rain
12:50 PM 53.6 °F - 42.8 °F 67% 29.65 in 6.2 mi West 12.7 mph - N/A   Mostly Cloudy
1:20 PM 53.6 °F - 42.8 °F 67% 29.68 in 6.2 mi West 17.3 mph - N/A   Mostly Cloudy
1:50 PM 53.6 °F - 44.6 °F 72% 29.68 in 6.2 mi West 16.1 mph - N/A Rain Light Rain
2:00 PM 53 °F - 44 °F 62% 29.68 in 6 mi West 16.1 mph - - Rain Light Rain
2:20 PM 53.6 °F - 44.6 °F 72% 29.71 in 6.2 mi WSW 9.2 mph - N/A   Mostly Cloudy
2:50 PM 55.4 °F - 42.8 °F 63% 29.71 in 6.2 mi West 11.5 mph - N/A   Mostly Cloudy
3:20 PM 55.4 °F - 42.8 °F 63% 29.71 in 6.2 mi West 19.6 mph - N/A   Mostly Cloudy
3:50 PM 55.4 °F - 41.0 °F 58% 29.71 in 6.2 mi West 20.7 mph - N/A   Mostly Cloudy
4:20 PM 55.4 °F - 41.0 °F 58% 29.74 in 6.2 mi West 13.8 mph - N/A   Scattered Clouds
4:50 PM 53.6 °F - 42.8 °F 67% 29.74 in 6.2 mi WNW 20.7 mph - N/A   Scattered Clouds
5:00 PM 53 °F - 42 °F 57% 29.75 in 6 mi WNW 20.7 mph - -   Scattered Clouds
5:20 PM 53.6 °F - 39.2 °F 58% 29.74 in 6.2 mi WNW 18.4 mph - N/A   Scattered Clouds
5:50 PM 51.8 °F - 35.6 °F 54% 29.77 in 6.2 mi WNW 13.8 mph - N/A   Scattered Clouds
6:20 PM 51.8 °F - 35.6 °F 54% 29.80 in 6.2 mi WNW 19.6 mph - N/A   Scattered Clouds
6:50 PM 50.0 °F - 35.6 °F 58% 29.80 in 6.2 mi West 8.1 mph - N/A   Scattered Clouds
7:20 PM 48.2 °F - 33.8 °F 58% 29.83 in 6.2 mi West 8.1 mph - N/A   Scattered Clouds
7:50 PM 46.4 °F 43.5 °F 33.8 °F 62% 29.83 in 6.2 mi NW 5.8 mph - N/A   Partly Cloudy
8:00 PM 47 °F - 35 °F 51% 29.84 in 6 mi NW 5.8 mph - -   Scattered Clouds
8:20 PM 46.4 °F 44.3 °F 33.8 °F 62% 29.83 in 6.2 mi WNW 4.6 mph - N/A   Partly Cloudy
8:50 PM 46.4 °F - 35.6 °F 66% 29.86 in 6.2 mi Calm Calm - N/A   Partly Cloudy
9:20 PM 44.6 °F 40.7 °F 35.6 °F 71% 29.86 in 6.2 mi North 6.9 mph - N/A   Partly Cloudy
9:50 PM 44.6 °F 40.2 °F 37.4 °F 76% 29.89 in 6.2 mi NNE 8.1 mph - N/A   Partly Cloudy
10:20 PM 42.8 °F 38.0 °F 37.4 °F 81% 29.89 in 6.2 mi NNE 8.1 mph - N/A   Partly Cloudy
10:50 PM 42.8 °F 38.6 °F 39.2 °F 87% 29.89 in 6.2 mi NE 6.9 mph - N/A   Partly Cloudy
11:00 PM 43 °F - 39 °F 82% 29.91 in 6 mi NE 6.9 mph - -   Scattered Clouds
11:50 PM 41.0 °F 38.0 °F 37.4 °F 87% 29.92 in 6.2 mi NNE 4.6 mph - N/A   Partly Cloudy